Miscellaneous Local Product
Issued by NWS North Platte, NE

Home | Current Version | Previous Version | Text Only | Print | Product List | Glossary On
Versions: 1 2 3 4 5 6 7 8 9 10 11 12 13 14 15 16 17 18 19 20 21 22 23 24 25 26 27 28 29 30 31 32 33 34 35 36 37 38 39 40 41 42 43 44 45 46 47 48 49 50
000
AXUS43 KLBF 300010
MISLBF


WESTERN AND NORTH CENTRAL NEBRASKA HOURLY WEATHER ROUNDUP
NATIONAL WEATHER SERVICE NORTH PLATTE NE
700 PM CDT SUN MAY 29 2016

NOTE: "FAIR" INDICATES FEW OR NO CLOUDS BELOW 12,000 FEET WITH NO
SIGNIFICANT WEATHER AND/OR OBSTRUCTIONS TO VISIBILITY.

NOTE: STATIONS NOT REPORTING VARIABLES SUCH AS SKY/WEATHER OR
PRESSURE ARE PROVIDED BY RAWS AND APRS NETWORKS AND ARE NOT UNDER
NATIONAL WEATHER SERVICE QUALITY CONTROL.

...OBSERVATIONS IN AND NEAR THE EASTERN PANHANDLE OF NEBRASKA...

CITY           SKY/WX    TMP DP  RH WIND       PRES   REMARKS
PINE RIDGE     SUNNY     79  43  27 CALM      29.97F
CHADRON        SUNNY     81  45  28 N7        29.96F
ALLIANCE       CLOUDY    75  46  35 SW9       29.98F
SIDNEY         SUNNY     76  44  32 VRB5      30.02F
BIG SPRINGS      N/A     83  51  32 SE8         N/A
$$

...OBSERVATIONS IN NORTHERN NEBRASKA AND FAR SOUTHERN SOUTH DAKOTA...

CITY           SKY/WX    TMP DP  RH WIND       PRES   REMARKS
WINNER         FAIR      78  54  43 SE12      29.97F
VALENTINE      SUNNY     79  51  37 SE12      29.96F
THEDFORD       MOSUNNY   82  53  37 SE13      29.98S
AINSWORTH      SUNNY     77  53  42 SE9G16    29.98F
O`NEILL        SUNNY     78  54  42 E6        30.00F
ORD            SUNNY     80  55  42 SE9       29.97S
BROKEN BOW     SUNNY     80  56  43 SE7       29.98F
BUTTE            N/A     75  57  53 E10         N/A
CHAMBERS         N/A     81  52  36 E3          N/A
EWING            N/A     79  59  49 E3          N/A
$$

...OBSERVATIONS IN SOUTHWEST NEBRASKA AND FAR NORTHEAST COLORADO...

CITY           SKY/WX    TMP DP  RH WIND       PRES   REMARKS
WRAY           MOCLDY    82  48  30 E8        29.97F
IMPERIAL       CLOUDY    69  53  56 SE17G29   29.99R THUNDER
OGALLALA       SUNNY     80  50  35 CALM      29.98S
NORTH PLATTE   CLOUDY    78  57  48 E14       29.96F
MCCOOK         CLOUDY    69  55  60 SE9G21    29.99R
LEXINGTON      CLOUDY    73  58  60 SW16      30.00R
PAXTON           N/A     83  53  35 CALM        N/A
STAPLETON        N/A     80  57  44 E3          N/A
GOTHENBURG       N/A     80  53  39 E7          N/A
CALLAWAY         N/A     79  59  49 SE9         N/A
$$

...OBSERVATIONS IN CENTRAL LINCOLN COUNTY AREA...

CITY           SKY/WX    TMP DP  RH WIND       PRES   REMARKS
N.P. AIRPORT   CLOUDY    78  57  48 E14       29.96F
N.P. DOWNTOWN    N/A     79  58  48 E7G15       N/A
N.P. SOUTHEAST   N/A     80  59  48 CALM        N/A
N.P. HILLCREST   N/A     79  58  47 E14         N/A
$$

...SOME OBSERVATIONS FROM AROUND THE REGION...

CITY           SKY/WX    TMP DP  RH WIND       PRES   REMARKS
DENVER         CLOUDY    67  41  38 NW35G47   30.11R
LARAMIE        LGT RAIN  51  44  77 S14       30.19F
CHEYENNE       CLOUDY    65  38  36 NE8       30.13S
SCOTTSBLUFF    CLOUDY    74  41  30 SW12      30.01F
RAPID CITY     SUNNY     74  51  44 E9        29.97F
BISMARCK       MOSUNNY   77  44  30 NW8G18    29.93F
PIERRE         SUNNY     75  54  47 SE12      29.95F
SIOUX FALLS    SUNNY     77  48  35 NW6       29.99F
OMAHA          MOSUNNY   85  57  38 NE5       29.97F
GRAND ISLAND   CLOUDY    75  58  55 S16G26    29.99S
KANSAS CITY    CLOUDY    77  66  68 S6        30.04S
WICHITA        PTSUNNY   76  55  48 SE9       30.04F
OKLAHOMA CITY  PTSUNNY   81  63  54 SE10      30.03R
DALLAS         CLOUDY    79  72  79 E12       29.95F THUNDER
AMARILLO       CLOUDY    57  53  86 E30G38    30.14F
DODGE CITY     CLOUDY    71  51  49 SW14      30.03F
HAYS           CLOUDY    72  48  43 NW14      30.01F
GOODLAND       CLOUDY    65  50  58 SE20G30   30.03R
$$




USA.gov is the U.S. government's official web portal to all federal, state and local government web resources and services.